Погода в Драгово

Украина / Закарпатская область     48°14′11″N   23°32′47″E
темп.,
°C
ветер,
м/с
пор.,
м/с
влажн.,
%
обл.,
%
осадки,
мм/ч
давл.,
гПа
погр.,
м
17 мая, вт
вт1700:00+11св22836 0.0 101815
03:00+10всв228655 0.0 101914
06:00+12в1176100 0.0 101719
09:00+16ююв117087 0.0 1017273
12:00+17юз227396 0.2 1017491
15:00+16ююз2282100 2.6 101591
18:00+14ссз2292100 1.3 101461
21:00+11св3792100 6.6 1015223
18 мая, ср
ср1800:00+10с2492100 0.8 101779
03:00+6ссв479072 0.8 1019119
06:00+3ссв34890 0.0 102253
09:00+8ссв47563 0.0 10241160
12:00+12с47360 0.0 10251850
15:00+15с47373 0.0 10252023
18:00+15с35460 0.0 10251538
21:00+9ссв34610 0.0 102849
19 мая, чт
чт1900:00+5св33690 0.0 103041
03:00+4св22740 0.0 103129
06:00+3всв22754 0.0 103119
09:00+10ю11555 0.0 1031323
12:00+14зюз21460 0.0 1030886
15:00+17зюз32465 0.0 1029944
18:00+16зюз22525 0.0 1028701
21:00+10ссв117624 0.0 102810
20 мая, пт
пт2000:00+8всв228224 0.0 102912
03:00+7всв2281100 0.0 102912
06:00+7всв227894 0.0 102912
09:00+13ююв126240 0.0 1028256
12:00+17юз2255100 0.0 1027713
15:00+19зюз3351100 0.0 10251038
18:00+18зюз23557 0.0 1024992
21:00+13всв11768 0.0 102211
21 мая, сб
сб2100:00+11всв2280100 0.0 102113
03:00+11в2276100 0.0 101917
06:00+10в1175100 0.0 101911
09:00+15ююв1266100 0.0 1017208
12:00+19юз235687 0.0 1016826
15:00+20юз336176 0.0 10151063
18:00+21ююз126499 0.0 10141050
21:00+17в008256 0.3 101211